Flippin, AR

10:31 PM CDT on May 26, 2017 (GMT -0500)
Marion County Regional

Weather History for KFLP - January, 2013

Change the Weather History Date:

Saturday, January 5, 2013

  Actual Average Record
Temperature  
Mean Temperature 37 °F -  
Max Temperature 48 °F 45 °F 64 °F (2012)
Min Temperature 26 °F 26 °F 3 °F (1999)
Degree Days  
Heating Degree Days 28    
Moisture  
Dew Point 25 °F    
Average Humidity 62    
Maximum Humidity 80    
Minimum Humidity 43    
Precipitation  
Precipitation 0.00 in - - ()
Sea Level Pressure  
Sea Level Pressure 30.25 in    
Wind  
Wind Speed 2 mph (SW)    
Max Wind Speed 13 mph    
Max Gust Speed 17 mph    
Visibility 10 miles    
Events      
Averages and records for this station are not official NWS values.
T = Trace of Precipitation, MM = Missing Value Source: NWS Daily Summary

Daily Weather History Graph

Daily Weather History Graph

Search for Another Location

Airport or City:

Trip Planner

Search our weather history database for the weather conditions in past years. The results will help you decide how hot, cold, wet, or windy it might be!

Date:

Astronomy

Jan. 05, 2013 Rise Set
Actual Time 7:22 AM CST 5:09 PM CST
Civil Twilight 6:53 AM CST 5:38 PM CST
Nautical Twilight 6:21 AM CST 6:10 PM CST
Astronomical Twilight 5:50 AM CST 6:41 PM CST
Moon 12:35 AM CST (1/5) 11:54 AM CST (1/5)
Length of Visible Light 10h 44m
Length of Day
9h 47m
Last Quarter, 44% of the Moon is Illuminated
Jan 5
Last Quarter
Jan 11
New
Jan 18
First Quarter
Jan 26
Full
Feb 3
Last Quarter

Hourly Weather History & Observations

Time (CST) Temp. Windchill Dew Point Humidity Pressure Visibility Wind Dir Wind Speed Gust Speed Precip Events Conditions
12:55 AM 28.4 °F - 21.2 °F 74% 30.32 in 10.0 mi Calm Calm - N/A   Clear
1:15 AM 30.2 °F - 21.2 °F 69% 30.32 in 10.0 mi Calm Calm - N/A   Clear
1:35 AM 28.4 °F - 19.4 °F 69% 30.32 in 10.0 mi Calm Calm - N/A   Clear
1:55 AM 28.4 °F - 21.2 °F 74% 30.32 in 10.0 mi Calm Calm - N/A   Clear
2:15 AM 28.4 °F - 21.2 °F 74% 30.31 in 10.0 mi Calm Calm - N/A   Clear
2:55 AM 26.6 °F - 19.4 °F 74% 30.31 in 10.0 mi Calm Calm - N/A   Scattered Clouds
3:15 AM 26.6 °F - 19.4 °F 74% 30.31 in 10.0 mi Calm Calm - N/A   Mostly Cloudy
3:35 AM 26.6 °F - 19.4 °F 74% 30.31 in 10.0 mi Calm Calm - N/A   Scattered Clouds
4:15 AM 26.6 °F - 19.4 °F 74% 30.32 in 10.0 mi Calm Calm - N/A   Mostly Cloudy
4:55 AM 26.6 °F - 19.4 °F 74% 30.31 in 10.0 mi Calm Calm - N/A   Mostly Cloudy
5:15 AM 26.6 °F - 21.2 °F 80% 30.31 in 10.0 mi Calm Calm - N/A   Mostly Cloudy
5:35 AM 28.4 °F - 21.2 °F 74% 30.31 in 10.0 mi Calm Calm - N/A   Mostly Cloudy
5:55 AM 28.4 °F - 21.2 °F 74% 30.31 in 10.0 mi Calm Calm - N/A   Overcast
6:15 AM 28.4 °F - 21.2 °F 74% 30.31 in 10.0 mi Calm Calm - N/A   Overcast
6:35 AM 28.4 °F - 21.2 °F 74% 30.32 in 10.0 mi Calm Calm - N/A   Overcast
7:15 AM 28.4 °F 23.3 °F 21.2 °F 74% 30.31 in 10.0 mi ESE 4.6 mph - N/A   Overcast
7:35 AM 28.4 °F - 21.2 °F 74% 30.32 in 10.0 mi Calm Calm - N/A   Mostly Cloudy
8:55 AM 32.0 °F - 24.8 °F 75% 30.32 in 10.0 mi Calm Calm - N/A   Overcast
9:15 AM 33.8 °F - 24.8 °F 70% 30.32 in 10.0 mi Calm Calm - N/A   Overcast
10:55 AM 42.8 °F 40.1 °F 24.8 °F 49% 30.29 in 10.0 mi WSW 4.6 mph - N/A   Overcast
11:35 AM 44.6 °F 41.4 °F 24.8 °F 46% 30.27 in 10.0 mi SW 5.8 mph - N/A   Overcast
11:55 AM 44.6 °F 40.2 °F 26.6 °F 49% 30.25 in 10.0 mi SSW 8.1 mph - N/A   Overcast
12:35 PM 46.4 °F 41.9 °F 26.6 °F 46% 30.22 in 10.0 mi SSW 9.2 mph - N/A   Overcast
12:55 PM 46.4 °F 41.9 °F 26.6 °F 46% 30.21 in 10.0 mi WSW 9.2 mph - N/A   Mostly Cloudy
1:15 PM 46.4 °F 40.7 °F 26.6 °F 46% 30.19 in 10.0 mi SSW 12.7 mph - N/A   Overcast
1:35 PM 48.2 °F - 26.6 °F 43% 30.19 in 10.0 mi SW 10.4 mph 16.1 mph N/A   Overcast
1:55 PM 48.2 °F - 26.6 °F 43% 30.18 in 10.0 mi SW 10.4 mph 16.1 mph N/A   Overcast
2:55 PM 46.4 °F 42.4 °F 26.6 °F 46% 30.18 in 10.0 mi SSW 8.1 mph - N/A   Overcast
3:15 PM 46.4 °F 40.7 °F 28.4 °F 50% 30.18 in 10.0 mi WSW 12.7 mph 17.3 mph N/A   Overcast
3:35 PM 46.4 °F 42.4 °F 28.4 °F 50% 30.19 in 10.0 mi SW 8.1 mph - N/A   Overcast
4:15 PM 46.4 °F 41.5 °F 28.4 °F 50% 30.19 in 10.0 mi SW 10.4 mph - N/A   Overcast
4:55 PM 44.6 °F 39.7 °F 28.4 °F 53% 30.19 in 10.0 mi WSW 9.2 mph - N/A   Overcast
5:35 PM 44.6 °F 40.7 °F 28.4 °F 53% 30.20 in 10.0 mi WSW 6.9 mph - N/A   Mostly Cloudy
6:15 PM 42.8 °F 41.1 °F 28.4 °F 57% 30.21 in 10.0 mi WSW 3.5 mph - N/A   Overcast
6:35 PM 42.8 °F 41.1 °F 28.4 °F 57% 30.21 in 10.0 mi West 3.5 mph - N/A   Overcast
6:55 PM 42.8 °F 39.3 °F 28.4 °F 57% 30.22 in 10.0 mi WNW 5.8 mph - N/A   Overcast
7:15 PM 42.8 °F 40.1 °F 28.4 °F 57% 30.23 in 10.0 mi WNW 4.6 mph - N/A   Overcast
7:55 PM 42.8 °F 41.1 °F 26.6 °F 53% 30.22 in 10.0 mi SSW 3.5 mph - N/A   Scattered Clouds
8:15 PM 41.0 °F 38.0 °F 28.4 °F 61% 30.22 in 10.0 mi SSW 4.6 mph - N/A   Overcast
8:35 PM 39.2 °F 35.9 °F 26.6 °F 61% 30.22 in 7.0 mi SSW 4.6 mph - N/A   Overcast
8:55 PM 39.2 °F 37.0 °F 26.6 °F 61% 30.21 in 10.0 mi SW 3.5 mph - N/A   Overcast
9:15 PM 39.2 °F 35.9 °F 28.4 °F 65% 30.21 in 10.0 mi SW 4.6 mph - N/A   Overcast
9:35 PM 39.2 °F 37.0 °F 26.6 °F 61% 30.21 in 10.0 mi SSW 3.5 mph - N/A   Overcast
10:15 PM 39.2 °F - 26.6 °F 61% 30.21 in 10.0 mi Calm Calm - N/A   Clear
10:35 PM 39.2 °F - 26.6 °F 61% 30.21 in 10.0 mi Calm Calm - N/A   Clear
10:55 PM 37.4 °F - 26.6 °F 65% 30.22 in 10.0 mi Calm Calm - N/A   Clear
11:15 PM 33.8 °F - 26.6 °F 75% 30.22 in 10.0 mi Calm Calm - N/A   Clear